Location: *
(50.5492°N, 7.7469°E)
Time: 17:19:13
(UTC+00:00)

Daily predictions for brighter satellites

Satellite Brightness Start Highest point End
(mag) Time Altitude Azimuth Time Altitude Azimuth Time Altitude Azimuth
Cosmos 2084 Rocket 4.2 16:50:05 10° NW 16:54:14 37° NNE 16:58:21 10° E
Unknown 3.8 16:50:25 10° W 16:54:34 70° N 16:58:43 10° ENE
COSMO-SKYMED 1 3.6 16:51:22 10° NE 16:55:01 26° E 16:58:39 10° SSE
Gbstr 26 Del rocket 4.1 16:49:58 10° WNW 16:55:35 80° SSW 17:02:34 10° ESE
Unknown 3.8 16:52:05 10° W 16:56:14 70° NNW 17:00:23 10° ENE
Cosmos 1626 4.2 16:53:33 10° NNW 16:56:57 34° W 17:00:19 10° SSW
Cosmos 1825 Rocket 4.1 16:52:45 10° NNW 16:57:07 66° W 17:01:29 10° S
Unknown 3.8 16:53:45 10° W 16:57:54 69° N 17:02:02 10° ENE
Meteor 1-16 Rocket 4.2 16:54:34 10° S 16:59:55 55° E 17:05:09 10° NNE
Envisat 3.1 16:55:57 10° SSE 17:00:54 57° ENE 17:05:54 10° N
Unknown 3.8 16:57:04 10° W 17:01:13 68° N 17:05:22 10° ENE
Unknown 3.6 16:57:48 10° WNW 17:01:31 60° N 17:05:14 10° E
Cosmos 1726 2.5 16:58:37 10° SSE 17:02:03 40° E 17:05:30 10° NNE
Cosmos 1953 Rocket 3.7 16:57:59 10° NNW 17:02:22 83° W 17:06:43 10° S
Cosmos 1908 4.1 16:59:16 10° SSE 17:02:40 29° E 17:06:05 10° NNE
Starlink (trailer) 3.8 16:58:45 10° W 17:02:53 67° N 17:07:01 10° ENE
Cosmos 2278 Rocket 2.9 16:58:00 10° S 17:03:03 34° ESE 17:08:08 10° NE
Unknown 3.8 17:00:27 10° W 17:04:34 67° N 17:08:43 10° ENE
Falcon 9 debris 3.1 17:01:24 10° WNW 17:04:52 88° SSW 17:08:20 10° ESE
Okean-O 2.6 17:00:27 10° SSE 17:04:53 87° ENE 17:09:21 10° NNW
H-2A R/B 4.0 17:03:42 10° ENE 17:05:05 11° NE 17:06:29 10° NNE
Unknown 3.2 17:01:42 10° WNW 17:05:14 82° NNE 17:08:46 10° ESE
BREEZE-M DEB (TANK) 4.5 17:02:08 10° SSW 17:05:51 19° SSE 17:08:02 10° ESE
Unknown 3.8 17:02:06 10° W 17:06:14 66° N 17:10:23 10° ENE
Meteor 1-11 4.3 17:01:48 10° N 17:07:31 59° ENE 17:13:15 10° SSE
Cosmos 1821 Rocket 4.3 17:01:56 10° NNW 17:08:03 75° W 17:14:12 10° S
Cosmos 1605 Rocket 4.1 17:02:43 10° N 17:08:48 53° ENE 17:14:45 10° SSE
FengYun 1-2 T 4.4 17:04:18 10° SE 17:09:46 57° ENE 17:15:15 10° N
Cosmos 1844 3.9 17:04:20 10° SSW 17:10:05 81° WNW 17:15:56 10° NNE
Cosmos 1356 3.6 17:06:59 10° S 17:10:19 50° E 17:13:41 10° NNE
Unknown 3.8 17:06:50 10° W 17:10:57 65° N 17:14:55 11° ENE
Cosmos 1953 2.9 17:07:47 10° SSW 17:11:49 62° WNW 17:15:52 10° N
Cosmos 1934 Rocket 4.0 17:05:27 10° N 17:11:49 79° E 17:18:13 10° SSE
Unknown 3.8 17:08:46 10° W 17:12:54 65° N 17:16:48 11° ENE
Unknown 3.9 17:10:37 10° W 17:14:45 64° N 17:18:36 12° ENE
Cosmos 1606 Rocket 3.9 17:10:27 10° SSW 17:14:48 72° WNW 17:19:10 10° N
CSL-04 Rocket 3.9 17:10:50 10° SE 17:16:09 51° ENE 17:21:25 10° N
Unknown 3.9 17:12:05 10° W 17:16:14 64° N 17:20:02 12° ENE
USA 238 DEB 4.4 17:12:02 10° S 17:17:52 33° ESE 17:23:52 10° NE
Unknown 3.9 17:13:48 10° W 17:17:55 63° N 17:21:36 13° ENE
USA 238 4.4 17:12:09 10° S 17:17:58 33° ESE 17:23:57 10° NE
COBE Rocket 4.0 17:14:05 10° NNE 17:19:13 60° E 17:24:13 10° S
Unknown 3.9 17:15:34 10° W 17:19:41 63° N 17:23:18 13° ENE
Cosmos 2263 Rocket 4.3 17:15:47 10° W 17:20:03 21° NW 17:24:19 10° NNE
Meteor 2-10 3.9 17:16:28 10° S 17:21:27 64° E 17:26:27 10° NNE
Cosmos 1076 Rocket 4.4 17:18:11 10° N 17:22:01 29° ENE 17:25:47 10° SE
CZ-4 R/B 4.4 17:18:50 10° SSE 17:22:53 63° ENE 17:26:59 10° N
Unknown 3.9 17:18:54 10° W 17:23:01 62° N 17:26:30 14° ENE
Unknown 3.9 17:18:58 10° W 17:23:06 62° N 17:26:34 14° ENE
Cosmos 1727 Rocket 4.5 17:18:34 10° SSE 17:24:06 36° E 17:29:41 10° NNE
Nadezhda 3 Rocket 4.5 17:17:52 10° SSW 17:24:08 69° WNW 17:30:32 10° N
Unknown 3.9 17:20:26 10° W 17:24:34 62° N 17:27:58 15° ENE
Unknown 3.3 17:23:25 10° WNW 17:26:56 76° SSW 17:30:03 13° ESE
Unknown 3.9 17:23:41 10° W 17:27:48 62° N 17:31:05 16° ENE
Unknown 3.9 17:27:07 10° W 17:31:14 61° N 17:34:22 17° ENE
YAOGAN 6 2.5 17:28:20 10° SSE 17:31:58 70° ENE 17:35:34 10° N
Cosmos 292 Rocket 3.7 17:28:08 10° SSW 17:32:53 89° ESE 17:37:40 10° NNE
Unknown 3.9 17:28:48 10° W 17:32:55 61° N 17:35:58 17° ENE
Cosmos 2058 3.9 17:29:31 10° N 17:33:09 27° ENE 17:36:43 10° SE
Cosmos 1833 Rocket 2.7 17:27:33 10° NNW 17:33:13 87° ENE 17:38:51 10° SSE
Unknown 3.9 17:30:28 10° W 17:34:36 61° N 17:37:34 18° ENE
Unknown 3.6 17:30:50 10° WNW 17:34:38 63° N 17:37:14 19° E
Cosmos 1812 Rocket 4.2 17:31:30 10° SSE 17:35:29 33° E 17:39:31 10° NNE
Unknown 3.9 17:32:09 10° W 17:36:16 61° N 17:39:11 18° ENE
Unknown 3.9 17:35:30 10° W 17:39:37 61° N 17:42:23 20° ENE
NOSS 3-2 (A) 4.0 17:35:45 10° S 17:40:58 36° ESE 17:46:23 12° NE
Unknown 3.9 17:37:13 10° W 17:41:20 61° N 17:44:02 20° ENE
Unknown 3.9 17:38:48 10° W 17:42:55 60° N 17:45:33 21° ENE
SKYMED 2 3.5 17:38:57 10° NNE 17:43:19 73° ESE 17:47:39 10° S
Ariane Rocket 3.4 17:38:50 10° SE 17:43:37 43° ENE 17:48:26 10° N
Cosmos 2151 4.3 17:40:33 10° NNE 17:43:43 20° ENE 17:44:07 19° ENE
Unknown 3.9 17:40:26 10° W 17:44:33 60° N 17:47:06 22° ENE
Cosmos 2228 4.4 17:40:46 10° SW 17:44:55 42° WNW 17:49:03 10° N
YAOGAN 1 2.5 17:41:51 10° SSE 17:46:11 80° ENE 17:50:32 10° NNW
Unknown 3.9 17:42:12 10° W 17:46:19 60° N 17:48:48 22° ENE
NOSS 3-3 (A) 4.5 17:40:07 10° NW 17:47:29 84° NE 17:55:42 10° SE
NOSS 3-3 (C) 4.5 17:40:12 10° NW 17:47:35 83° NE 17:55:48 10° SE
Unknown 3.9 17:43:37 10° W 17:47:44 60° N 17:50:10 23° ENE
Unknown 3.9 17:46:57 10° W 17:51:04 60° N 17:53:22 24° ENE
Cosmos 921 Rocket 4.4 17:48:07 10° SW 17:52:21 41° WNW 17:56:35 10° N
Unknown 3.9 17:48:38 10° W 17:52:45 60° N 17:54:58 25° ENE
IRS-1A Rocket 4.4 17:48:26 10° SE 17:53:40 48° ENE 17:58:58 10° N
Cosmos 2100 Rocket 4.1 17:47:49 10° N 17:53:50 49° ENE 17:59:45 10° SSE
Cosmos 1300 3.2 17:50:33 10° SSE 17:54:03 36° E 17:57:36 10° NNE
Unknown 3.9 17:50:31 10° W 17:54:38 60° N 17:56:46 26° ENE
Cosmos 1939 Rocket 3.0 17:51:00 10° SSE 17:54:54 53° ENE 17:58:54 10° N
HJ-1C 4.1 17:54:55 31° E 17:55:23 33° ENE 17:58:27 10° N
Unknown 3.9 17:51:58 10° W 17:56:05 60° N 17:58:10 27° ENE
Unknown 3.5 17:52:19 10° WNW 17:56:12 67° NNE 17:57:58 30° E
Abrixas rocket 2.6 17:53:55 10° WSW 17:56:52 43° SSE 17:57:37 35° SE
Cosmos 1937 Rocket 4.1 17:52:24 10° N 17:57:07 34° NE 17:59:13 25° E
Unknown 3.9 17:53:36 10° W 17:57:42 60° N 17:59:43 28° ENE
Cosmos 990 Rocket 4.4 17:52:45 10° NNW 17:57:43 43° ENE 18:00:41 22° ESE
CZ-2D R/B 3.2 17:54:17 10° SSE 17:58:06 62° ENE 18:01:57 10° N
Unknown 3.9 17:56:59 10° W 18:01:06 60° N 18:02:58 30° ENE
Unknown 3.8 17:58:37 10° W 18:02:44 60° N 18:04:32 31° ENE
ADEOS Rocket 4.3 17:57:31 10° NNE 18:03:38 25° E 18:07:27 17° SE
Cosmos 2082 Rocket 2.3 17:58:22 10° NNW 18:04:07 81° WSW 18:09:47 10° SSE
Unknown 3.8 18:00:18 10° W 18:04:25 60° N 18:06:09 32° ENE
CSL-04 Debris 4.4 17:59:04 10° S 18:04:31 73° WSW 18:10:02 10° NNW
Unknown 3.7 18:01:51 10° WNW 18:05:53 63° N 18:07:24 35° ENE
BREEZE-M DEB (TANK) 4.3 18:01:30 10° WNW 18:05:59 60° SSW 18:18:49 11° SE
Unknown 3.8 18:01:57 10° WNW 18:06:04 60° N 18:07:43 33° ENE
NOSS 3-2 (C) 3.9 18:01:30 10° S 18:06:43 35° ESE 18:09:34 24° ENE
Cosmos 1153 Rocket 4.4 18:02:42 10° N 18:08:53 90° W 18:15:02 10° S
ASTEX 1 4.2 18:04:09 10° N 18:08:58 53° WNW 18:13:48 10° SSW
Unknown 3.8 18:05:22 10° WNW 18:09:28 61° N 18:10:59 36° ENE
USA 116 3.1 18:06:16 10° NNE 18:09:30 87° ESE 18:12:56 10° SSW
Unknown 3.8 18:06:25 10° WNW 18:10:32 61° N 18:11:59 36° ENE
Cosmos 2016 Rocket 4.3 18:05:09 10° N 18:11:09 44° ENE 18:15:25 19° SE
Unknown 3.8 18:07:09 10° WNW 18:11:17 62° N 18:12:41 37° ENE
Unknown 3.8 18:08:27 10° WNW 18:12:31 62° N 18:13:50 39° ENE
Unknown 3.8 18:08:52 10° WNW 18:12:59 62° N 18:14:20 39° ENE
Unknown 3.8 18:12:00 10° WNW 18:16:08 62° N 18:17:21 41° ENE
Unknown 3.8 18:15:20 10° WNW 18:19:27 62° N 18:20:32 44° ENE
Unknown 3.8 18:16:59 10° WNW 18:21:07 62° N 18:22:08 45° ENE
Unknown 3.8 18:18:37 10° WNW 18:22:45 63° N 18:23:42 47° ENE
Lacrosse 5 2.8 18:19:11 10° WNW 18:23:58 44° SW 18:27:30 17° SSE
Unknown 3.8 18:20:18 10° WNW 18:24:26 63° N 18:25:18 49° ENE
Meteor 2-1 Rocket 4.2 18:19:43 10° S 18:25:04 55° E 18:30:31 10° NNE
SL-27 R/B 4.2 18:22:17 10° N 18:23:39 19° NNE 18:23:39 19° NNE
SJ 16-02 1.5 18:21:13 10° NNW 18:25:28 48° ENE 18:25:45 47° ENE
CZ-4 R/B 3.3 18:22:15 10° SSW 18:26:03 33° W 18:29:54 10° NNW
SPOT 3 Rocket 3.9 18:26:38 39° E 18:27:25 42° ENE 18:32:19 10° N
In-Cosmos 22 Rocket 4.0 18:22:22 10° N 18:27:48 75° ENE 18:32:45 13° SSE
ATLAS CENTAUR R/B 3.1 18:26:20 10° NNW 18:29:56 22° NNE 18:30:12 22° NNE
Unknown 3.7 18:26:58 10° WNW 18:31:07 64° N 18:31:42 56° NE
COSMO-SKYMED 1 3.9 18:27:14 10° N 18:31:19 40° WNW 18:35:23 10° SW
Unknown 3.7 18:28:40 10° WNW 18:32:48 65° N 18:33:20 58° NE
Cosmos 2084 Rocket 4.3 18:29:36 10° NW 18:33:53 48° SW 18:36:05 25° S
ATLAS 3B R/B 3.0 18:28:11 10° S 18:34:20 39° ESE 18:35:04 38° ESE
Unknown 3.6 18:30:18 10° WNW 18:34:26 65° N 18:34:53 60° NE
ATLAS 5 CENTAUR R/B 3.7 18:32:06 10° WNW 18:35:52 23° NNW 18:39:02 14° NNE
Unknown 3.6 18:31:58 10° WNW 18:36:06 66° N 18:36:29 61° NE
Unknown 3.6 18:33:37 10° WNW 18:37:45 66° N 18:38:04 63° NE
Unknown 3.5 18:35:56 10° WNW 18:39:38 63° SSW 18:39:40 63° SSW
Unknown 3.6 18:36:56 10° WNW 18:41:05 67° N 18:41:16 66° NNE
CENTAUR R/B 2.8 18:36:20 10° S 18:42:00 44° ESE 18:42:36 43° ESE
Starlink (trailer) 3.6 18:38:36 10° WNW 18:42:45 68° N 18:42:51 67° NNE
H-2A R/B 2.3 18:42:58 49° E 18:43:16 50° ENE 18:48:31 10° N
Cosmos 1459 Rocket 4.0 18:37:18 10° N 18:43:34 85° W 18:49:53 10° S
Unknown 3.6 18:40:18 10° WNW 18:44:27 68° N 18:44:29 68° NNE
Cosmos 2061 Rocket 3.8 18:38:57 10° N 18:45:14 76° E 18:49:20 23° SSE
SJ-6B 4.2 18:47:30 26° N 18:47:30 26° N 18:49:18 10° N
Unknown 3.6 18:41:57 10° WNW 18:46:05 69° N 18:46:05 69° N
Cosmos 2278 Rocket 3.0 18:41:28 10° SW 18:46:58 50° NW 18:52:31 10° NNE
SJ-11-01 4.1 18:46:45 57° SSE 18:47:40 81° ENE 18:52:23 10° NNW
Cosmos 1898 Rocket 3.5 18:42:24 10° NNW 18:47:42 80° WSW 18:50:02 34° SSE
Cosmos 1766 Rocket 3.6 18:44:47 10° N 18:48:35 62° NNE 18:48:35 62° NNE
Cosmos 2297 3.6 18:45:00 10° SSW 18:50:40 72° ESE 18:53:21 33° NE
Unknown 3.7 18:46:38 10° WNW 18:50:31 68° NNW 18:50:31 68° NNW
Unknown 3.8 18:48:37 10° WNW 18:52:27 67° NNW 18:52:27 67° NNW
Unknown 3.8 18:50:29 10° WNW 18:54:17 66° NNW 18:54:17 66° NNW
Unknown 3.9 18:51:55 10° WNW 18:55:40 66° NNW 18:55:40 66° NNW
Unknown 3.9 18:53:37 10° WNW 18:57:15 63° NW 18:57:15 63° NW
Okean 3 Rocket 3.8 18:54:51 10° NNW 18:59:23 71° W 19:00:14 55° SSW
Unknown 4.0 18:55:23 10° WNW 18:58:57 62° NW 18:58:57 62° NW
Unknown 4.1 18:58:43 10° WNW 19:02:08 58° NW 19:02:08 58° NW
Unknown 4.1 18:58:47 10° WNW 19:02:12 57° NW 19:02:12 57° NW
Resurs 01 Rocket 3.6 19:06:07 19° N 19:06:07 19° N 19:07:36 10° N
Unknown 4.2 19:00:15 10° WNW 19:03:37 56° NW 19:03:37 56° NW
ARGOS 3.1 19:05:12 67° NE 19:05:12 67° NE 19:10:25 10° N
Unknown 4.3 19:03:30 10° WNW 19:06:44 52° WNW 19:06:44 52° WNW
USA 238 DEB 3.8 19:01:37 10° SW 19:08:20 71° NW 19:12:35 26° NE
Cosmos 1892 4.1 19:04:38 10° NNW 19:06:54 33° NNW 19:06:54 33° NNW
USA 238 3.8 19:01:43 10° SW 19:08:27 72° NW 19:12:38 26° NE
Cosmos 44 3.7 19:06:02 10° SW 19:09:46 52° SW 19:09:46 52° SW
Unknown 4.5 19:06:55 10° WNW 19:10:01 49° WNW 19:10:01 49° WNW
Cosmos 1864 Rocket 4.4 19:11:10 10° N 19:17:21 84° W 19:18:58 52° S
Cosmos 2151 3.9 19:17:08 10° NNW 19:20:43 47° WNW 19:20:43 47° WNW
Meteor 2-3 Rocket 4.4 19:19:25 10° N 19:23:33 44° NNE 19:23:33 44° NNE
Cosmos 2123 Rocket 3.9 19:24:50 51° S 19:26:35 90° NW 19:32:53 10° N
Cosmos 468 Rocket 4.5 19:24:05 10° SSW 19:28:19 55° WSW 19:28:19 55° WSW
NOSS 3-2 (A) 3.8 19:25:33 10° WSW 19:31:28 62° NW 19:33:48 39° NNE
Cosmos 2233 Rocket 3.9 19:27:06 10° N 19:32:56 76° NNE 19:32:56 76° NNE
Cosmos 1725 Rocket 4.2 19:28:12 10° NNW 19:34:26 66° W 19:36:08 48° SSW
CZ-2C R/B 3.6 19:38:09 59° N 19:38:09 59° N 19:42:45 10° NNW
Cosmos 1937 Rocket 4.4 19:34:20 10° NW 19:39:10 42° WSW 19:39:25 41° WSW
Cosmos 2227 Rocket 4.3 19:41:18 10° N 19:43:33 15° NNE 19:43:33 15° NNE
Cosmos 2297 Rocket 4.3 19:46:00 10° N 19:48:12 16° NNE 19:48:12 16° NNE
ADEOS Rocket 3.4 19:42:14 10° NNE 19:50:00 82° WNW 19:54:18 28° SSW
NOSS 3-2 (C) 3.8 19:51:19 10° WSW 19:57:05 62° NW 19:57:05 62° NW
SJ 16-02 3.7 20:00:23 10° NW 20:02:46 20° WNW 20:02:46 20° WNW
ATLAS CENTAUR R/B 4.1 20:05:07 10° NW 20:06:23 18° NW 20:06:23 18° NW
ATLAS 5 CENTAUR R/B 4.2 20:18:16 10° NW 20:20:34 19° NNW 20:20:34 19° NNW
H-2A R/B 3.8 20:23:36 29° W 20:23:36 29° W 20:27:40 10° NNW
ATLAS 3B R/B 3.6 20:18:10 10° WSW 20:22:24 39° WSW 20:22:24 39° WSW
CENTAUR R/B 3.8 20:26:22 10° WSW 20:29:52 34° W 20:29:52 34° W
